Location: *
(49.5667°N, 1.3667°W)
Time: 20:55:05
(UTC+00:00)

Cosmos 1603 - Pass Details

Date: 20 September 2019
Orbit: 831 x 860 km, 71.0° (Epoch: 20 October)

Event Time Altitude Azimuth Distance (km) Brightness Sun altitude
Rises 21:21:13 0° 330° (NNW) 3,408 7.9 -29.2°
Reaches altitude 10° 21:23:40 10° 330° (NNW) 2,474 7.0 -29.5°
Enters shadow 21:28:43 71° 321° (NW) 897 3.8 -30.1°
